Weather Roundup
Issued by NWS

Home | Current Version | Previous Version | Graphics & Text | Print | Product List | Glossary Off
Versions: 1 2 3 4 5 6 7 8 9 10 11 12 13 14 15 16 17 18 19 20 21 22 23 24 25 26 27 28 29 30 31 32 33 34 35 36 37 38 39 40 41 42 43 44 45 46 47 48 49 50

000
NZUS93 KARX 191610
HRRWXR

CURRENT HOURLY OBSERVATIONS ACROSS
MUCH OF THE UPPER MISSISSIPPI VALLEY
NATIONAL WEATHER SERVICE LA CROSSE WI
1100 AM CDT FRI SEP 19 2014


...SOUTHEAST MINNESOTA...


CITY           SKY/WX    TMP DP  RH WIND       PRES   REMARKS
ROCHESTER      PTSUNNY   66  54  65 S24G35    29.92F
ROCHESTER/MAYO FAIR      66  52  61 S16G29    29.92F
WINONA         MOSUNNY   70  55  60 S5        29.94F
AUSTIN         CLOUDY    64  55  72 S17G30    29.91F
ALBERT LEA     PTSUNNY   64  55  72 S16G29    29.88F
DODGE CENTER   PTSUNNY   66  57  72 S29G36    29.89F
PRESTON        MOSUNNY   65  58  78 S18G33    29.95F
OWATONNA       PTSUNNY   66  55  68 S20G32    29.85F
FARIBAULT      PTSUNNY   70  54  56 S20G29    29.84F
$$

...ELSEWHERE IN MINNESOTA...


CITY           SKY/WX    TMP DP  RH WIND       PRES   REMARKS
MINNEAPOLIS    CLOUDY    66  56  70 S18G26    29.81F
INTNL FALLS    CLOUDY    61  56  83 S7        29.59F
DULUTH         CLOUDY    61  52  72 S20G26    29.73F
RED WING       PTSUNNY   66  54  63 S9G17     29.87F
REDWOOD FALLS  CLOUDY    65  61  87 S18G30    29.73F
MANKATO        PTSUNNY   68  55  64 S21G26    29.80F
WORTHINGTON    CLOUDY    64  61  88 S20G29    29.79F
FAIRMONT       CLOUDY    68  54  60 S20       29.82F
$$

...SOUTHWEST WISCONSIN...


CITY           SKY/WX    TMP DP  RH WIND       PRES   REMARKS
LA CROSSE      SUNNY     68  54  60 S18       29.96F
PRAIRIE DU CHI SUNNY     65  53  64 SE5       30.04S
BOSCOBEL       SUNNY     68  54  60 S10G17    30.05F
LONE ROCK      SUNNY     69  54  58 S14       30.05F
PLATTEVILLE    SUNNY     65  55  70 S15       30.08F
FORT MC COY    SUNNY     64  52  63 S16       30.01F
CAMP DOUGLAS   MOSUNNY   64  55  72 S12       30.03F
VIROQUA        FAIR      64  54  71 S8        30.03F
WIS DELLS      SUNNY     65  52  62 S15       30.06F
$$

...ELSEWHERE IN WISCONSIN...


CITY           SKY/WX    TMP DP  RH WIND       PRES   REMARKS
MILWAUKEE      PTSUNNY   67  54  63 S14       30.11F
MADISON        MOSUNNY   67  53  61 S14       30.08F
GREEN BAY      SUNNY     67  54  63 S13       30.07F
EAU CLAIRE     MOSUNNY   66  53  63 S16G25    29.92F
BLACK RVR FLS  FAIR      67  52  59 S10       29.97F
MEDFORD        PTSUNNY   58  50  75 S14       29.99F
WAUSAU         PTSUNNY   60  51  72 S13       30.01F
WIS RAPIDS     SUNNY     64  52  64 S13G21    30.04F
MARSHFIELD     MOSUNNY   62  52  69 S15G21    30.00F
RICE LAKE      CLOUDY    61  52  72 SE13      29.90F
$$

...NORTHEAST IOWA...


CITY           SKY/WX    TMP DP  RH WIND       PRES   REMARKS
WATERLOO       SUNNY     68  55  63 S16G25    30.00F
DUBUQUE        SUNNY     65  55  70 S15       30.07F
DECORAH        SUNNY     66  55  68 S16G24    29.98F
MASON CITY     PTSUNNY   68  58  70 S20G28    29.93F
CHARLES CITY   MOSUNNY   68  55  64 S17G28    29.97F
OELWEIN        SUNNY     68  55  64 S20G25    30.02F
$$

...ELSEWHERE IN IOWA...


CITY           SKY/WX    TMP DP  RH WIND       PRES   REMARKS
DES MOINES     PTSUNNY   70  61  73 S16G28    29.99S
IOWA CITY      SUNNY     67  57  70 S10       30.08S
FORT DODGE     MOSUNNY   72  61  68 S17G26    29.91F
MARSHALLTOWN   MOSUNNY   68  58  70 S16       29.99F
CEDAR RAPIDS   SUNNY     67  56  67 S16G22    30.05S
$$

...NORTHERN ILLINOIS...


CITY           SKY/WX    TMP DP  RH WIND       PRES   REMARKS
CHICAGO-OHARE  MOSUNNY   66  51  58 S13       30.15F
DUPAGE         SUNNY     69  52  54 S14       30.14F
CHICAGO-MIDWAY MOSUNNY   69  52  54 S8        30.16F
MOLINE         SUNNY     69  54  58 S13G20    30.09F
ROCKFORD       MOSUNNY   68  51  54 S20       30.14F
STERLING       SUNNY     70  54  56 SW7       30.12F
PEORIA         SUNNY     70  53  54 S8        30.13S
$$

NOTE: "FAIR" INDICATES FEW OR NO CLOUDS BELOW 12,000 FEET WITH NO
SIGNIFICANT WEATHER AND/OR OBSTRUCTIONS TO VISIBILITY. WIND
SPEEDS ARE IN MILES-PER-HOUR.



USA.gov is the U.S. government's official web portal to all federal, state and local government web resources and services.